[[{"header":{"parameterUnit":"m.s-1","parameterCategory":1,"la1":30.2991,"la2":30.254,"lo1":-89.0895,"lo2":-89.0444,"dy":0.0017,"dx":0.0017,"nx":28,"ny":28,"refTime":"2024-04-18T21:00:00:Z","depth":0,"parameterNumber":2,"parameterNumberName":"U-component_of_WINDS"},"data":[0,0,0,0,0,0,0,0,0,0,0,0,0,0,0,0,0,0,0,0,0,0,0,0,0,0,0,0,0,0,0,0,0,0,0,0,0,0,0,0,0,0,0,0,0,0,0,0,0,0,0,0,0,0,0,0,0,0,0.3328,0.333,0,0.3487,0.3489,0.3491,0.356,0.3559,0.3559,0.3559,0.3722,0.3727,0.3731,0,0,0,0,0,0,0,0,0,0,0,0,0,0.3085,0.3089,0.3328,0.333,0.3332,0.3487,0.3489,0.3491,0.356,0.3559,0.3559,0.3559,0.3721,0.3726,0.3732,0,0,0,0,0,0,0,0,0,0,0,0,0,0.3211,0.309,0.3328,0.3385,0.3392,0.3486,0.3489,0.3492,0.356,0.3559,0.3559,0.3559,0.3719,0.3726,0.3732,0.3782,0,0,0.3753,0.3756,0,0,0,0,0,0,0,0,0.3204,0.322,0.3374,0.3381,0.3389,0.3503,0.3463,0.3589,0.356,0.3496,0.3559,0.3559,0.365,0.3662,0.3693,0.379,0.3797,0.3754,0.3758,0.3761,0.3763,0,0,0,0,0,0,0,0.3195,0.3214,0.3391,0.3377,0.3385,0.3403,0.342,0.3487,0.3573,0.3501,0.3507,0.3525,0.3653,0.3686,0.3697,0.3799,0.3754,0.376,0.3764,0.3767,0.3945,0.3946,0,0,0,0,0,0,0.3177,0.3206,0.3386,0.3396,0.3294,0.3407,0.3427,0.3467,0.3572,0.3588,0.3525,0.3527,0.3674,0.3689,0.3703,0.3769,0.3761,0.3767,0.3771,0.3945,0.3945,0.3946,0,0,0,0,0,0,0.3172,0.3192,0.3379,0.3302,0.3328,0.3412,0.3456,0.347,0.3503,0.359,0.3606,0.3542,0.3675,0.3693,0.3762,0.3775,0.377,0.3777,0.3944,0.3945,0.3946,0.39,0,0,0,0,0,0,0.3164,0.319,0.321,0.3302,0.3331,0.3435,0.3457,0.3473,0.3514,0.3519,0.3611,0.3625,0.3676,0.3751,0.3769,0.3785,0.3782,0.3943,0.3944,0.3945,0.3901,0.3899,0.3898,0,0,0,0,0,0.3155,0.319,0.321,0.3231,0.3358,0.3436,0.3453,0.351,0.3515,0.3536,0.3592,0.3622,0.3771,0.3758,0.3778,0.3796,0.3943,0.3944,0.3945,0.3901,0.3899,0.3898,0,0,0,0,0,0,0.3097,0.3203,0.3227,0.3293,0.3355,0.3447,0.3475,0.3506,0.3568,0.357,0.3638,0.3658,0.3721,0.3766,0.3749,0.385,0.3859,0.3865,0.3819,0.3818,0.3817,0.3805,0.3788,0,0,0,0,0,0.3091,0.3146,0.3236,0.3286,0.3316,0.339,0.3426,0.3465,0.3532,0.3558,0.362,0.3684,0.3745,0.3784,0.3845,0.3907,0.3928,0.393,0.3928,0.3927,0.3931,0.3968,0.397,0.3951,0.3951,0.3951,0,0,0.3081,0.3146,0.3177,0.3276,0.3328,0.3384,0.3411,0.3469,0.351,0.3567,0.3636,0.3683,0.3759,0.3824,0.3856,0.3864,0.3941,0.3929,0.3927,0.3932,0.3969,0.3971,0.3973,0.3952,0.3952,0.3951,0,0,0.3091,0.3145,0.3193,0.3245,0.3325,0.3374,0.3385,0.3473,0.3507,0.3576,0.362,0.3671,0.3775,0.3828,0.3868,0.3897,0.3928,0.3915,0.3909,0.3944,0.3945,0.3947,0.3958,0.3961,0.3919,0.3919,0.3919,0,0.3068,0.3153,0.3213,0.3269,0.3311,0.3365,0.3414,0.3462,0.3557,0.3585,0.3591,0.3723,0.3778,0.3857,0.3864,0.3895,0.391,0.3906,0.394,0.3942,0.3945,0.3956,0.396,0.3917,0.3917,0.3917,0.3918,0,0.3122,0.318,0.3209,0.33,0.3345,0.3397,0.3465,0.3504,0.3539,0.3587,0.3658,0.3725,0.3801,0.3823,0.3857,0.3907,0.3909,0.3927,0.3937,0.3943,0.3955,0.396,0.3914,0.3915,0.3915,0.3916,0,0,0.3099,0.3223,0.3232,0.3274,0.3366,0.3412,0.3466,0.3541,0.3573,0.3637,0.3684,0.3771,0.3788,0.3833,0.3874,0.3905,0.3925,0.3919,0.3922,0.3918,0.3984,0.3971,0.3975,0.3945,0.3946,0.3947,0.3978,0,0.3122,0.3221,0.3277,0.3353,0.3408,0.346,0.3508,0.3569,0.3615,0.3669,0.3721,0.3781,0.3799,0.3827,0.3859,0.3915,0.3939,0.3914,0.3991,0.3993,0.397,0.3981,0.3967,0.3992,0.3983,0.3984,0.3984,0,0.3162,0.3225,0.3306,0.3392,0.3417,0.3459,0.3532,0.3582,0.3653,0.3684,0.3735,0.3776,0.3835,0.3841,0.3924,0.3905,0.394,0.3972,0.3975,0.3984,0.3989,0.3991,0.4002,0.4006,0.3992,0.3992,0.3991,0,0.3138,0.3243,0.3306,0.334,0.3442,0.347,0.3513,0.3583,0.3625,0.3688,0.3716,0.3785,0.3823,0.3876,0.3935,0.3933,0.4012,0.4022,0.404,0.4039,0.4055,0.4053,0.4072,0.4076,0.4076,0.4076,0.4076,0,0.3157,0.3205,0.3296,0.3335,0.3391,0.3454,0.3507,0.3555,0.3617,0.3666,0.3715,0.376,0.3834,0.3888,0.3934,0.3996,0.4013,0.4041,0.4053,0.4037,0.4033,0.4061,0.4061,0.4077,0.4077,0.4077,0.4077,0,0.314,0.3203,0.3275,0.3365,0.3389,0.3426,0.3504,0.3543,0.3592,0.3653,0.3671,0.3749,0.3815,0.3878,0.3967,0.3998,0.406,0.4075,0.4036,0.4042,0.4057,0.4055,0.4095,0.4103,0.41,0.41,0.41,0,0.3149,0.3187,0.3282,0.3318,0.3361,0.3419,0.3461,0.3525,0.3568,0.3651,0.3681,0.375,0.381,0.3913,0.3977,0.4045,0.4063,0.4072,0.4073,0.4056,0.4064,0.4061,0.4065,0.407,0.407,0.407,0.407,0,0.3158,0.3187,0.3247,0.3317,0.3366,0.3425,0.3485,0.3512,0.3587,0.3632,0.3701,0.3747,0.3837,0.3906,0.3981,0.4027,0.4061,0.4069,0.4077,0.4061,0.4037,0.4051,0.4033,0.4068,0.4068,0.4068,0.4068,0.4068,0.3155,0.3192,0.3264,0.3329,0.3381,0.3436,0.3477,0.3532,0.359,0.3669,0.3703,0.3772,0.3842,0.3947,0.3992,0.4047,0.4055,0.4066,0.4069,0.4071,0.4068,0.4028,0.4061,0.4061,0.4061,0.4061,0.4061,0,0.3167,0.3216,0.3275,0.3358,0.3409,0.3436,0.3504,0.3545,0.3605,0.3668,0.3725,0.3804,0.3871,0.394,0.4011,0.4042,0.4059,0.4058,0.4057,0.4067,0.4057,0.4043,0.4043,0.4043,0.4043,0.4043,0.4043,0.4043,0.3179,0.3243,0.3281,0.3371,0.342,0.3489,0.3525,0.3576,0.3626,0.3712,0.3768,0.3813,0.3878,0.3954,0.4017,0.4036,0.406,0.4054,0.4077,0.4067,0.4068,0.4069,0.4056,0.4059,0.4059,0.4083,0.4084,0.4084]},{"header":{"parameterUnit":"m.s-1","parameterCategory":1,"la1":30.2991,"la2":30.254,"lo1":-89.0895,"lo2":-89.0444,"dy":0.0017,"dx":0.0017,"nx":28,"ny":28,"refTime":"2024-04-18T21:00:00:Z","depth":0,"parameterNumber":3,"parameterNumberName":"V-component_of_WINDS"},"data":[0,0,0,0,0,0,0,0,0,0,0,0,0,0,0,0,0,0,0,0,0,0,0,0,0,0,0,0,0,0,0,0,0,0,0,0,0,0,0,0,0,0,0,0,0,0,0,0,0,0,0,0,0,0,0,0,0,0,2.6707,2.6707,0,2.6724,2.6724,2.6724,2.6732,2.6732,2.6732,2.6732,2.6747,2.6747,2.6748,0,0,0,0,0,0,0,0,0,0,0,0,0,2.6679,2.668,2.6707,2.6707,2.6707,2.6724,2.6724,2.6724,2.6732,2.6732,2.6732,2.6732,2.6747,2.6747,2.6748,0,0,0,0,0,0,0,0,0,0,0,0,0,2.6693,2.668,2.6707,2.6713,2.6714,2.6724,2.6724,2.6724,2.6732,2.6732,2.6732,2.6732,2.6746,2.6747,2.6748,2.6752,0,0,2.675,2.675,0,0,0,0,0,0,0,0,2.6692,2.6694,2.6712,2.6713,2.6714,2.6726,2.672,2.6733,2.6732,2.6725,2.6732,2.6732,2.674,2.6741,2.6744,2.6752,2.6753,2.675,2.675,2.675,2.675,0,0,0,0,0,0,0,2.6692,2.6694,2.6714,2.6712,2.6713,2.6715,2.6717,2.6722,2.6732,2.6726,2.6726,2.6728,2.674,2.6743,2.6744,2.6753,2.675,2.675,2.675,2.6751,2.6766,2.6766,0,0,0,0,0,0,2.669,2.6693,2.6713,2.6714,2.6703,2.6715,2.6717,2.6722,2.6732,2.6734,2.6728,2.6729,2.6742,2.6744,2.6745,2.6751,2.675,2.6751,2.6751,2.6766,2.6766,2.6766,0,0,0,0,0,0,2.6689,2.6692,2.6712,2.6704,2.6706,2.6716,2.6721,2.6722,2.6726,2.6734,2.6736,2.673,2.6742,2.6744,2.675,2.6751,2.6751,2.6752,2.6766,2.6766,2.6766,2.6762,0,0,0,0,0,0,2.6688,2.6691,2.6693,2.6704,2.6707,2.6718,2.6721,2.6723,2.6727,2.6727,2.6736,2.6738,2.6742,2.6749,2.6751,2.6752,2.6752,2.6766,2.6766,2.6766,2.6762,2.6762,2.6762,0,0,0,0,0,2.6687,2.6691,2.6693,2.6696,2.671,2.6718,2.672,2.6726,2.6727,2.6729,2.6734,2.6737,2.6751,2.675,2.6752,2.6753,2.6766,2.6766,2.6766,2.6762,2.6762,2.6762,0,0,0,0,0,0,2.6679,2.6692,2.6695,2.6702,2.6709,2.6719,2.6722,2.6726,2.6732,2.6732,2.6739,2.6741,2.6746,2.675,2.6749,2.6758,2.6759,2.6759,2.6755,2.6755,2.6755,2.6754,2.6753,0,0,0,0,0,2.6679,2.6685,2.6696,2.6701,2.6704,2.6713,2.6716,2.6721,2.6728,2.673,2.6736,2.6742,2.6748,2.6752,2.6757,2.6763,2.6765,2.6765,2.6765,2.6764,2.6765,2.6768,2.6768,2.6767,2.6767,2.6767,0,0,2.6677,2.6685,2.6688,2.67,2.6705,2.6711,2.6715,2.6721,2.6725,2.6731,2.6738,2.6742,2.6749,2.6755,2.6758,2.6759,2.6766,2.6765,2.6764,2.6765,2.6768,2.6769,2.6769,2.6767,2.6767,2.6767,0,0,2.6677,2.6683,2.6689,2.6695,2.6704,2.6709,2.6711,2.6721,2.6724,2.6731,2.6736,2.6741,2.675,2.6755,2.6759,2.6762,2.6765,2.6763,2.6762,2.6766,2.6766,2.6766,2.6767,2.6767,2.6763,2.6763,2.6763,0,2.6673,2.6683,2.6691,2.6697,2.6702,2.6708,2.6714,2.6719,2.6729,2.6732,2.6732,2.6745,2.675,2.6758,2.6759,2.6761,2.6763,2.6762,2.6765,2.6766,2.6766,2.6767,2.6767,2.6763,2.6763,2.6763,2.6763,0,2.6678,2.6685,2.6688,2.6699,2.6704,2.671,2.6718,2.6722,2.6726,2.6731,2.6738,2.6745,2.6752,2.6754,2.6758,2.6762,2.6762,2.6764,2.6765,2.6766,2.6767,2.6767,2.6763,2.6763,2.6763,2.6763,0,0,2.6673,2.6689,2.669,2.6695,2.6706,2.6711,2.6717,2.6725,2.6729,2.6735,2.674,2.6749,2.6751,2.6755,2.6759,2.6762,2.6764,2.6763,2.6764,2.6763,2.6769,2.6768,2.6769,2.6766,2.6766,2.6766,2.6769,0,2.6674,2.6686,2.6694,2.6702,2.6709,2.6715,2.672,2.6727,2.6732,2.6738,2.6743,2.675,2.6751,2.6754,2.6757,2.6763,2.6765,2.6763,2.677,2.677,2.6768,2.6769,2.6768,2.677,2.6769,2.6769,2.6769,0,2.6677,2.6686,2.6695,2.6706,2.6709,2.6714,2.6722,2.6728,2.6735,2.6739,2.6744,2.6749,2.6755,2.6755,2.6763,2.6762,2.6765,2.6768,2.6768,2.6769,2.677,2.677,2.6771,2.6772,2.677,2.677,2.677,0,2.6673,2.6686,2.6694,2.6698,2.6711,2.6714,2.6719,2.6727,2.6732,2.6739,2.6742,2.6749,2.6753,2.6758,2.6764,2.6764,2.6772,2.6773,2.6775,2.6775,2.6776,2.6776,2.6778,2.6778,2.6778,2.6778,2.6778,0,2.6674,2.668,2.6692,2.6697,2.6703,2.6712,2.6717,2.6723,2.673,2.6736,2.6741,2.6746,2.6754,2.676,2.6764,2.677,2.6772,2.6775,2.6776,2.6774,2.6774,2.6777,2.6777,2.6778,2.6778,2.6778,2.6778,0,2.667,2.6679,2.6688,2.67,2.6703,2.6707,2.6717,2.6721,2.6727,2.6734,2.6736,2.6745,2.6752,2.6758,2.6767,2.677,2.6777,2.6778,2.6774,2.6775,2.6777,2.6776,2.678,2.6781,2.678,2.678,2.678,0,2.667,2.6675,2.6688,2.6693,2.6698,2.6705,2.6711,2.6719,2.6724,2.6733,2.6737,2.6744,2.6751,2.6762,2.6768,2.6775,2.6777,2.6778,2.6778,2.6776,2.6777,2.6777,2.6778,2.6778,2.6778,2.6778,2.6778,0,2.667,2.6674,2.6682,2.6691,2.6698,2.6705,2.6713,2.6716,2.6725,2.6731,2.6738,2.6744,2.6753,2.6761,2.6769,2.6773,2.6777,2.6777,2.6778,2.6777,2.6775,2.6776,2.6774,2.6777,2.6777,2.6777,2.6777,2.6777,2.6668,2.6673,2.6683,2.6692,2.6699,2.6706,2.6711,2.6718,2.6725,2.6734,2.6738,2.6746,2.6754,2.6765,2.677,2.6776,2.6776,2.6777,2.6778,2.6778,2.6778,2.6774,2.6777,2.6777,2.6777,2.6777,2.6777,0,2.6668,2.6675,2.6683,2.6694,2.6701,2.6705,2.6714,2.6719,2.6726,2.6734,2.674,2.6749,2.6757,2.6764,2.6772,2.6775,2.6777,2.6777,2.6777,2.6778,2.6777,2.6775,2.6775,2.6775,2.6775,2.6775,2.6775,2.6775,2.6669,2.6678,2.6683,2.6695,2.6702,2.6711,2.6715,2.6722,2.6728,2.6738,2.6745,2.675,2.6758,2.6766,2.6773,2.6775,2.6777,2.6777,2.6779,2.6778,2.6778,2.6778,2.6777,2.6777,2.6777,2.678,2.678,2.678]}]]